Location: Gradaro
(45.0833°N, 10.8833°E)
Time: 20:57:44
(UTC+00:00)

Cosmos 1743 Rocket - Pass Details

Date: 29 November 2020
Orbit: 603 x 634 km, 82.6° (Epoch: 18 January)

Event Time Altitude Azimuth Distance (km) Brightness Sun altitude
Rises 04:53:16 0° 189° (S) 2,897 7.1 -17.1°
Reaches altitude 10° 04:55:29 10° 191° (S) 1,999 6.2 -16.7°
Maximum altitude 04:59:55 81° 278° (W) 645 3.5 -15.9°
Drops below altitude 10° 05:04:26 10° 7° (N) 2,027 6.1 -15.1°
Sets 05:06:42 0° 8° (N) 2,941 7.0 -14.8°
